Flag for Macedonia, Republic of Weather past 2 weeks in Kumanovo, Macedonia, Republic of

Now
68 °F

Heavy rain. Partly sunny.


Feels Like: 68 °F
Forecast: 62 / 73 °F
Wind: 1 mph from North

Location: Skopje-Petrovec

Current Time: Sep 2, 2014 at 11:14:15 AM

Latest Report: Sep 2, 2014 at 10:30 AM


Visibility: 2 mi

Pressure: 29.74 "Hg

Humidity: 88%

Dew point: 64 °F

Location of KumanovoLocation

Historic Weather in Kumanovo — Graph

°F

Kumanovo temperature yesterday

Maximum temperature yesterday: 90 °F (at 3:30 PM)
Minimum temperature yesterday: 61 °F (at 5:30 AM)
Average temperature yesterday: 73 °F

Past Weeks' High & Low Weather Summary

 TemperatureHumidityPressure
High95 °F (Aug 21, 3:30 PM)94% (Aug 22, 6:30 AM)30.12 "Hg (Aug 22, 6:30 AM)
Low52 °F (Aug 19, 5:00 AM)17% (Aug 18, 5:00 PM)29.68 "Hg (Sep 1, 3:30 PM)
Average75 °F56%29.96 "Hg
* Reported Aug 18 10:00 AM — Sep 2 10:00 AM, Kumanovo, Weather by CustomWeather, © 2014

Note: Actual official high and low records may vary slightly from our data, if they occured in-between our weather recording intervals... More about our weather records

Advertising

Kumanovo weather history for previous 24 hours

 ConditionsComfort  
Time TempWeatherWind HumidityBarometerVisibility
10:00 AM
Sep 2
68 °FRain. Partly sunny.No wind88%29.74 "Hg5 mi
9:30 AM70 °FLight rain. Broken clouds.No wind88%29.74 "HgN/A
9:00 AM70 °FLight rain. Broken clouds.1 mph83%29.74 "HgN/A
8:30 AM70 °FBroken clouds.1 mph83%29.74 "HgN/A
8:00 AM70 °FBroken clouds.No wind83%29.71 "HgN/A
7:30 AM68 °FBroken clouds.2 mph88%29.74 "HgN/A
7:00 AM64 °FBroken clouds.No wind94%29.71 "HgN/A
6:30 AM64 °FPartly cloudy.No wind94%29.71 "HgN/A
6:00 AM63 °FPassing clouds.No wind94%29.71 "HgN/A
5:30 AM63 °FPartly cloudy.No wind94%29.71 "HgN/A
5:00 AM63 °FPartly cloudy.No wind94%29.71 "HgN/A
4:30 AM63 °FPartly cloudy.2 mph94%29.71 "HgN/A
4:00 AM63 °FPartly cloudy.2 mph94%29.74 "HgN/A
3:00 AM63 °FPartly cloudy.2 mph94%29.74 "HgN/A
2:30 AM63 °FPartly cloudy.2 mph94%29.74 "HgN/A
1:30 AM64 °FPartly cloudy.No wind94%29.77 "HgN/A
1:00 AM64 °FPartly cloudy.No wind94%29.77 "HgN/A
12:30 AM64 °FPartly cloudy.No wind94%29.77 "HgN/A
11:30 PM
Sep 1
64 °FPartly cloudy.2 mph94%29.74 "HgN/A
11:00 PM64 °FPartly cloudy.2 mph94%29.74 "HgN/A
10:30 PM66 °FPartly cloudy.No wind88%29.77 "HgN/A
10:00 PM66 °FPartly cloudy.3 mph88%29.77 "HgN/A
9:30 PM66 °FPartly cloudy.3 mph94%29.77 "HgN/A
9:00 PM66 °FPassing clouds.2 mph94%29.77 "HgN/A
8:30 PM66 °FPassing clouds.No wind94%29.77 "HgN/A
8:00 PM68 °FThundershowers. Partly sunny.No wind83%29.74 "HgN/A
7:30 PM68 °FScattered clouds.2 mph83%29.71 "HgN/A
7:00 PM70 °FThunderstorms. Scattered clouds.6 mph78%29.74 "HgN/A
6:30 PM72 °FThunderstorms. Scattered clouds.6 mph78%29.71 "HgN/A
6:00 PM75 °FThunderstorms. Scattered clouds.3 mph57%29.71 "HgN/A
5:30 PM77 °FScattered clouds.7 mph54%29.71 "HgN/A
5:00 PM84 °FScattered clouds.6 mph40%29.68 "HgN/A
4:30 PM86 °FScattered clouds.9 mph33%29.68 "HgN/A
4:00 PM88 °FPassing clouds.14 mph31%29.68 "HgN/A
3:30 PM90 °FPassing clouds.10 mph27%29.68 "HgN/A
3:00 PM88 °FPassing clouds.8 mph31%29.71 "HgN/A
2:30 PM88 °FPassing clouds.9 mph31%29.71 "HgN/A
2:00 PM88 °FPassing clouds.8 mph31%29.74 "HgN/A
1:30 PM86 °FPassing clouds.7 mph35%29.74 "HgN/A
1:00 PM86 °FPassing clouds.7 mph35%29.74 "HgN/A
12:30 PM84 °FPassing clouds.6 mph40%29.77 "HgN/A
12:00 PM82 °FSunny.2 mph45%29.80 "Hg10 mi
11:30 AM81 °FSunny.2 mph48%29.80 "Hg10 mi
11:00 AM79 °FSunny.3 mph51%29.80 "Hg10 mi
Weather by CustomWeather, © 2014

See weather overviewHow to use our weather pages